"Data set title: Gaging station water sample data. Usage: Event based table used with water chemistry collection from 29-Apr-2015 to 30-Sep-2015",,,,,,,,,,,,
,,,,,,,,,,,,,
"Site","Date","RecNum","SiteID","Flag_SiteID","LOGGERID","PROGID","VNOTCH_INST_0_0_01","Flag_VNOTCH_INST_0_0_01","SAMPLE_INST_0_0_01","Flag_SAMPLE_INST_0_0_01","STAGE_INST_0_0_01","Flag_STAGE_INST_0_0_01"
"","yyyy-MM-dd HH:mm:ss","count","","none","none","none","none","none","count","none","ft","none"
"nominal","datetime","nominal","data","code","nominal","nominal","data","code","data","code","data","code"
"GSWS02_116",2015-04-29 15:04:45,0,102.00,"",116,35414.0,0,"",1,"",0.0770,""
"GSWS02_116",2015-04-30 03:21:30,1,102.00,"",116,35414.0,0,"",2,"",0.0760,""
"GSWS02_116",2015-04-30 16:39:30,2,102.00,"",116,35414.0,0,"",3,"",0.0760,""
"GSWS02_116",2015-05-01 05:57:30,3,102.00,"",116,35414.0,0,"",4,"",0.0760,""
"GSWS02_116",2015-05-01 19:15:30,4,102.00,"",116,35414.0,0,"",5,"",0.0740,""
"GSWS02_116",2015-05-02 08:33:30,5,102.00,"",116,35414.0,0,"",6,"",0.0710,""
"GSWS02_116",2015-05-02 21:51:30,6,102.00,"",116,35414.0,0,"",7,"",0.0700,""
"GSWS02_116",2015-05-03 11:09:30,7,102.00,"",116,35414.0,0,"",8,"",0.0700,""
"GSWS02_116",2015-05-04 00:27:30,8,102.00,"",116,35414.0,0,"",9,"",0.0690,""
"GSWS02_116",2015-05-04 13:45:30,9,102.00,"",116,35414.0,0,"",10,"",0.0690,""
"GSWS02_116",2015-05-05 03:03:30,10,102.00,"",116,35414.0,0,"",11,"",0.0680,""
"GSWS02_116",2015-05-05 14:34:00,11,102.00,"",116,35414.0,0,"",12,"",0.0670,""
"GSWS02_116",2015-05-05 16:21:30,12,102.00,"",116,35414.0,0,"",13,"",0.0630,""
"GSWS02_116",2015-05-06 05:39:30,13,102.00,"",116,35414.0,0,"",14,"",0.0620,""
"GSWS02_116",2015-05-06 18:57:30,14,102.00,"",116,35414.0,0,"",15,"",0.0620,""
"GSWS02_116",2015-05-07 08:15:30,15,102.00,"",116,35414.0,0,"",16,"",0.0620,""
"GSWS02_116",2015-05-07 21:33:30,16,102.00,"",116,35414.0,0,"",17,"",0.0600,""
"GSWS02_116",2015-05-08 10:51:30,17,102.00,"",116,35414.0,0,"",18,"",0.0600,""
"GSWS02_116",2015-05-09 00:09:30,18,102.00,"",116,35414.0,0,"",19,"",0.0590,""
"GSWS02_116",2015-05-09 13:27:30,19,102.00,"",116,35414.0,0,"",20,"",0.0580,""
"GSWS02_116",2015-05-10 02:45:30,20,102.00,"",116,35414.0,0,"",21,"",0.0570,""
"GSWS02_116",2015-05-10 16:03:30,21,102.00,"",116,35414.0,0,"",22,"",0.0570,""
"GSWS02_116",2015-05-11 05:21:30,22,102.00,"",116,35414.0,0,"",23,"",0.0570,""
"GSWS02_116",2015-05-11 18:39:30,23,102.00,"",116,35414.0,0,"",24,"",0.0600,""
"GSWS02_116",2015-05-12 07:57:30,24,102.00,"",116,35414.0,0,"",25,"",0.0670,""
"GSWS02_116",2015-05-12 18:24:15,25,102.00,"",116,35414.0,0,"",26,"",0.0600,""
"GSWS02_116",2015-05-12 21:15:30,26,102.00,"",116,35414.0,0,"",1,"",0.0600,""
"GSWS02_116",2015-05-13 10:33:30,27,102.00,"",116,35414.0,0,"",2,"",0.0580,""
"GSWS02_116",2015-05-13 23:51:30,28,102.00,"",116,35414.0,0,"",3,"",0.0570,""
"GSWS02_116",2015-05-14 13:09:30,29,102.00,"",116,35414.0,0,"",4,"",0.0560,""
"GSWS02_116",2015-05-15 02:27:30,30,102.00,"",116,35414.0,0,"",5,"",0.0560,""
"GSWS02_116",2015-05-15 15:45:30,31,102.00,"",116,35414.0,0,"",6,"",0.0550,""
"GSWS02_116",2015-05-16 05:03:30,32,102.00,"",116,35414.0,0,"",7,"",0.0540,""
"GSWS02_116",2015-05-16 18:21:30,33,102.00,"",116,35414.0,0,"",8,"",0.0540,""
"GSWS02_116",2015-05-17 07:39:30,34,102.00,"",116,35414.0,0,"",9,"",0.0530,""
"GSWS02_116",2015-05-17 20:57:30,35,102.00,"",116,35414.0,0,"",10,"",0.0530,""
"GSWS02_116",2015-05-18 10:15:30,36,102.00,"",116,35414.0,0,"",11,"",0.0530,""
"GSWS02_116",2015-05-18 23:33:30,37,102.00,"",116,35414.0,0,"",12,"",0.0770,""
"GSWS02_116",2015-05-19 12:51:30,38,102.00,"",116,35414.0,0,"",13,"",0.0620,""
"GSWS02_116",2015-05-20 02:09:30,39,102.00,"",116,35414.0,0,"",14,"",0.0590,""
"GSWS02_116",2015-05-20 15:27:30,40,102.00,"",116,35414.0,0,"",15,"",0.0570,""
"GSWS02_116",2015-05-21 04:45:30,41,102.00,"",116,35414.0,0,"",16,"",0.0560,""
"GSWS02_116",2015-05-21 18:03:30,42,102.00,"",116,35414.0,0,"",17,"",0.1030,""
"GSWS02_116",2015-05-22 07:21:30,43,102.00,"",116,35414.0,0,"",18,"",0.0740,""
"GSWS02_116",2015-05-22 20:39:30,44,102.00,"",116,35414.0,0,"",19,"",0.0670,""
"GSWS02_116",2015-05-23 09:57:30,45,102.00,"",116,35414.0,0,"",20,"",0.0640,""
"GSWS02_116",2015-05-23 23:15:30,46,102.00,"",116,35414.0,0,"",21,"",0.0620,""
"GSWS02_116",2015-05-24 12:33:30,47,102.00,"",116,35414.0,0,"",22,"",0.0610,""
"GSWS02_116",2015-05-25 01:51:30,48,102.00,"",116,35414.0,0,"",23,"",0.0580,""
"GSWS02_116",2015-05-25 15:09:30,49,102.00,"",116,35414.0,0,"",24,"",0.0600,""
"GSWS02_116",2015-05-26 04:27:30,50,102.00,"",116,35414.0,0,"",25,"",0.0600,""
"GSWS02_116",2015-05-26 17:45:30,51,102.00,"",116,35414.0,0,"",26,"",0.0590,""
"GSWS02_116",2015-05-27 07:03:30,52,102.00,"",116,35414.0,0,"",27,"",0.0590,""
"GSWS02_116",2015-05-27 20:21:30,53,102.00,"",116,35414.0,0,"",28,"",0.0580,""
"GSWS02_116",2015-05-28 09:39:30,54,102.00,"",116,35414.0,0,"",29,"",0.0570,""
"GSWS02_116",2015-05-28 22:57:30,55,102.00,"",116,35414.0,0,"",30,"",0.0550,""
"GSWS02_116",2015-05-29 12:15:30,56,102.00,"",116,35414.0,0,"",31,"",0.0530,""
"GSWS02_116",2015-05-30 01:33:30,57,102.00,"",116,35414.0,0,"",32,"",0.0520,""
"GSWS02_116",2015-05-30 14:51:30,58,102.00,"",116,35414.0,0,"",33,"",0.0510,""
"GSWS02_116",2015-05-31 04:09:30,59,102.00,"",116,35414.0,0,"",34,"",0.0510,""
"GSWS02_116",2015-05-31 17:27:30,60,102.00,"",116,35414.0,0,"",35,"",0.0510,""
"GSWS02_116",2015-06-01 06:45:30,61,102.00,"",116,35414.0,0,"",36,"",0.0500,""
"GSWS02_116",2015-06-01 20:03:30,62,102.00,"",116,35414.0,0,"",37,"",0.0500,""
"GSWS02_116",2015-06-02 09:21:30,63,102.00,"",116,35414.0,0,"",38,"",0.0500,""
"GSWS02_116",2015-06-02 22:39:30,64,102.00,"",116,35414.0,0,"",39,"",0.0500,""
"GSWS02_116",2015-06-03 11:04:45,65,102.00,"",116,35414.0,0,"",40,"",0.0490,""
"GSWS02_116",2015-06-03 11:18:30,66,102.00,"",116,35414.0,0,"",41,"",0.0490,""
"GSWS02_116",2015-06-03 11:57:30,67,102.00,"",116,35414.0,0,"",1,"",0.0490,""
"GSWS02_116",2015-06-04 01:15:30,68,102.00,"",116,35414.0,0,"",2,"",0.0480,""
"GSWS02_116",2015-06-04 14:33:30,69,102.00,"",116,35414.0,0,"",3,"",0.0480,""
"GSWS02_116",2015-06-05 03:51:30,70,102.00,"",116,35414.0,0,"",4,"",0.0470,""
"GSWS02_116",2015-06-05 17:09:30,71,102.00,"",116,35414.0,0,"",5,"",0.0470,""
"GSWS02_116",2015-06-06 06:27:30,72,102.00,"",116,35414.0,0,"",6,"",0.0460,""
"GSWS02_116",2015-06-06 19:45:30,73,102.00,"",116,35414.0,0,"",7,"",0.0450,""
"GSWS02_116",2015-06-07 09:03:30,74,102.00,"",116,35414.0,0,"",8,"",0.0450,""
"GSWS02_116",2015-06-07 22:21:30,75,102.00,"",116,35414.0,0,"",9,"",0.0440,""
"GSWS02_116",2015-06-08 11:39:30,76,102.00,"",116,35414.0,0,"",10,"",0.0440,""
"GSWS02_116",2015-06-09 00:57:30,77,102.00,"",116,35414.0,0,"",11,"",0.0440,""
"GSWS02_116",2015-06-09 14:15:30,78,102.00,"",116,35414.0,0,"",12,"",0.0410,""
"GSWS02_116",2015-06-10 03:33:30,79,102.00,"",116,35414.0,0,"",13,"",0.0410,""
"GSWS02_116",2015-06-10 16:51:30,80,102.00,"",116,35414.0,0,"",14,"",0.0410,""
"GSWS02_116",2015-06-11 06:09:30,81,102.00,"",116,35414.0,0,"",15,"",0.0410,""
"GSWS02_116",2015-06-11 19:27:30,82,102.00,"",116,35414.0,0,"",16,"",0.0400,""
"GSWS02_116",2015-06-12 08:45:30,83,102.00,"",116,35414.0,0,"",17,"",0.0400,""
"GSWS02_116",2015-06-12 22:03:30,84,102.00,"",116,35414.0,0,"",18,"",0.0400,""
"GSWS02_116",2015-06-13 11:21:30,85,102.00,"",116,35414.0,0,"",19,"",0.0400,""
"GSWS02_116",2015-06-14 00:39:30,86,102.00,"",116,35414.0,0,"",20,"",0.0390,""
"GSWS02_116",2015-06-14 13:57:30,87,102.00,"",116,35414.0,0,"",21,"",0.0390,""
"GSWS02_116",2015-06-15 03:15:30,88,102.00,"",116,35414.0,0,"",22,"",0.0390,""
"GSWS02_116",2015-06-15 16:33:30,89,102.00,"",116,35414.0,0,"",23,"",0.0390,""
"GSWS02_116",2015-06-16 05:51:30,90,102.00,"",116,35414.0,0,"",24,"",0.0380,""
"GSWS02_116",2015-06-16 19:09:30,91,102.00,"",116,35414.0,0,"",25,"",0.0380,""
"GSWS02_116",2015-06-17 08:27:30,92,102.00,"",116,35414.0,0,"",26,"",0.0380,""
"GSWS02_116",2015-06-17 15:08:00,93,102.00,"",116,35414.0,1,"",27,"",0.2260,""
"GSWS02_116",2015-06-17 21:45:30,94,102.00,"",116,35414.0,1,"",27,"",0.2220,""
"GSWS02_116",2015-06-18 11:03:30,95,102.00,"",116,35414.0,1,"",28,"",0.2240,""
"GSWS02_116",2015-06-19 00:21:30,96,102.00,"",116,35414.0,1,"",29,"",0.2200,""
"GSWS02_116",2015-06-19 13:39:30,97,102.00,"",116,35414.0,1,"",30,"",0.2220,""
"GSWS02_116",2015-06-20 02:57:30,98,102.00,"",116,35414.0,1,"",31,"",0.2200,""
"GSWS02_116",2015-06-20 16:15:30,99,102.00,"",116,35414.0,1,"",32,"",0.2200,""
"GSWS02_116",2015-06-21 05:33:30,100,102.00,"",116,35414.0,1,"",33,"",0.2200,""
"GSWS02_116",2015-06-21 18:51:30,101,102.00,"",116,35414.0,1,"",34,"",0.2160,""
"GSWS02_116",2015-06-22 08:09:30,102,102.00,"",116,35414.0,1,"",35,"",0.2180,""
"GSWS02_116",2015-06-22 21:27:30,103,102.00,"",116,35414.0,1,"",36,"",0.2150,""
"GSWS02_116",2015-06-23 10:45:30,104,102.00,"",116,35414.0,1,"",37,"",0.2180,""
"GSWS02_116",2015-06-24 00:03:30,105,102.00,"",116,35414.0,1,"",38,"",0.2140,""
"GSWS02_116",2015-06-24 09:28:00,106,102.00,"",116,35414.0,1,"",39,"",0.2160,""
"GSWS02_116",2015-06-24 23:55:30,0,102.00,"",116,48168.0,1,"",1,"",0.2120,""
"GSWS02_116",2015-06-25 13:13:30,1,102.00,"",116,48168.0,1,"",2,"",0.2140,""
"GSWS02_116",2015-06-26 02:31:30,2,102.00,"",116,48168.0,1,"",3,"",0.2110,""
"GSWS02_116",2015-06-26 15:49:30,3,102.00,"",116,48168.0,1,"",4,"",0.2120,""
"GSWS02_116",2015-06-27 05:07:30,4,102.00,"",116,48168.0,1,"",5,"",0.2200,""
"GSWS02_116",2015-06-27 18:25:30,5,102.00,"",116,48168.0,1,"",6,"",0.2120,""
"GSWS02_116",2015-06-28 07:43:30,6,102.00,"",116,48168.0,1,"",7,"",0.2130,""
"GSWS02_116",2015-06-28 21:01:30,7,102.00,"",116,48168.0,1,"",8,"",0.2090,""
"GSWS02_116",2015-06-29 10:19:30,8,102.00,"",116,48168.0,1,"",9,"",0.2110,""
"GSWS02_116",2015-06-29 23:37:30,9,102.00,"",116,48168.0,1,"",10,"",0.2060,""
"GSWS02_116",2015-06-30 12:55:30,10,102.00,"",116,48168.0,1,"",11,"",0.2100,""
"GSWS02_116",2015-07-01 02:13:30,11,102.00,"",116,48168.0,1,"",12,"",0.2050,""
"GSWS02_116",2015-07-01 15:31:30,12,102.00,"",116,48168.0,1,"",13,"",0.2050,""
"GSWS02_116",2015-07-02 04:49:30,13,102.00,"",116,48168.0,1,"",14,"",0.2030,""
"GSWS02_116",2015-07-02 18:07:30,14,102.00,"",116,48168.0,1,"",15,"",0.2010,""
"GSWS02_116",2015-07-03 07:25:30,15,102.00,"",116,48168.0,1,"",16,"",0.2020,""
"GSWS02_116",2015-07-03 20:43:30,16,102.00,"",116,48168.0,1,"",17,"",0.1970,""
"GSWS02_116",2015-07-04 10:01:30,17,102.00,"",116,48168.0,1,"",18,"",0.2010,""
"GSWS02_116",2015-07-04 23:19:30,18,102.00,"",116,48168.0,1,"",19,"",0.1970,""
"GSWS02_116",2015-07-05 12:37:30,19,102.00,"",116,48168.0,1,"",20,"",0.2010,""
"GSWS02_116",2015-07-06 01:56:00,20,102.00,"",116,48168.0,1,"",21,"",0.1950,""
"GSWS02_116",2015-07-06 15:14:00,21,102.00,"",116,48168.0,1,"",22,"",0.1970,""
"GSWS02_116",2015-07-06 15:55:15,22,102.00,"",116,48168.0,1,"",23,"",0.1950,""
"GSWS02_116",2015-07-07 04:31:30,23,102.00,"",116,48168.0,1,"",23,"",0.1960,""
"GSWS02_116",2015-07-07 17:49:30,24,102.00,"",116,48168.0,1,"",24,"",0.1950,""
"GSWS02_116",2015-07-08 07:07:30,25,102.00,"",116,48168.0,1,"",25,"",0.1970,""
"GSWS02_116",2015-07-08 20:25:30,26,102.00,"",116,48168.0,1,"",26,"",0.1910,""
"GSWS02_116",2015-07-09 09:43:30,27,102.00,"",116,48168.0,1,"",27,"",0.1970,""
"GSWS02_116",2015-07-09 23:01:30,28,102.00,"",116,48168.0,1,"",28,"",0.2000,""
"GSWS02_116",2015-07-10 12:19:30,29,102.00,"",116,48168.0,1,"",29,"",0.2050,""
"GSWS02_116",2015-07-11 01:37:30,30,102.00,"",116,48168.0,1,"",30,"",0.1970,""
"GSWS02_116",2015-07-11 14:55:30,31,102.00,"",116,48168.0,1,"",31,"",0.1970,""
"GSWS02_116",2015-07-12 04:13:30,32,102.00,"",116,48168.0,1,"",32,"",0.1950,""
"GSWS02_116",2015-07-12 17:31:30,33,102.00,"",116,48168.0,1,"",33,"",0.1920,""
"GSWS02_116",2015-07-13 06:49:30,34,102.00,"",116,48168.0,1,"",34,"",0.1920,""
"GSWS02_116",2015-07-13 20:07:30,35,102.00,"",116,48168.0,1,"",35,"",0.1890,""
"GSWS02_116",2015-07-14 09:25:30,36,102.00,"",116,48168.0,1,"",36,"",0.1910,""
"GSWS02_116",2015-07-14 22:43:30,37,102.00,"",116,48168.0,1,"",37,"",0.1870,""
"GSWS02_116",2015-07-15 11:07:15,38,102.00,"",116,48168.0,1,"",38,"",0.1910,""
"GSWS02_116",2015-07-15 11:07:30,39,102.00,"",116,48168.0,1,"",39,"",0.1910,""
"GSWS02_116",2015-07-15 12:01:30,40,102.00,"",116,48168.0,1,"",1,"",0.1910,""
"GSWS02_116",2015-07-16 01:19:30,41,102.00,"",116,48168.0,1,"",2,"",0.1850,""
"GSWS02_116",2015-07-16 14:37:30,42,102.00,"",116,48168.0,1,"",3,"",0.1880,""
"GSWS02_116",2015-07-17 03:55:30,43,102.00,"",116,48168.0,1,"",4,"",0.1850,""
"GSWS02_116",2015-07-17 17:13:30,44,102.00,"",116,48168.0,1,"",5,"",0.1850,""
"GSWS02_116",2015-07-18 06:31:30,45,102.00,"",116,48168.0,1,"",6,"",0.1840,""
"GSWS02_116",2015-07-18 19:49:30,46,102.00,"",116,48168.0,1,"",7,"",0.1780,""
"GSWS02_116",2015-07-19 09:07:30,47,102.00,"",116,48168.0,1,"",8,"",0.1820,""
"GSWS02_116",2015-07-19 22:25:30,48,102.00,"",116,48168.0,1,"",9,"",0.1770,""
"GSWS02_116",2015-07-20 11:43:30,49,102.00,"",116,48168.0,1,"",10,"",0.1820,""
"GSWS02_116",2015-07-21 01:01:30,50,102.00,"",116,48168.0,1,"",11,"",0.1770,""
"GSWS02_116",2015-07-21 14:19:30,51,102.00,"",116,48168.0,1,"",12,"",0.1820,""
"GSWS02_116",2015-07-22 03:37:30,52,102.00,"",116,48168.0,1,"",13,"",0.1770,""
"GSWS02_116",2015-07-22 16:55:30,53,102.00,"",116,48168.0,1,"",14,"",0.1790,""
"GSWS02_116",2015-07-23 06:13:30,54,102.00,"",116,48168.0,1,"",15,"",0.1780,""
"GSWS02_116",2015-07-23 19:31:30,55,102.00,"",116,48168.0,1,"",16,"",0.1760,""
"GSWS02_116",2015-07-24 08:49:30,56,102.00,"",116,48168.0,1,"",17,"",0.1780,""
"GSWS02_116",2015-07-24 22:07:30,57,102.00,"",116,48168.0,1,"",18,"",0.1740,""
"GSWS02_116",2015-07-25 11:25:30,58,102.00,"",116,48168.0,1,"",19,"",0.1780,""
"GSWS02_116",2015-07-26 00:43:30,59,102.00,"",116,48168.0,1,"",20,"",0.1750,""
"GSWS02_116",2015-07-26 14:01:30,60,102.00,"",116,48168.0,1,"",21,"",0.1780,""
"GSWS02_116",2015-07-27 03:19:30,61,102.00,"",116,48168.0,1,"",22,"",0.1740,""
"GSWS02_116",2015-07-27 16:37:30,62,102.00,"",116,48168.0,1,"",23,"",0.1730,""
"GSWS02_116",2015-07-28 05:55:30,63,102.00,"",116,48168.0,1,"",24,"",0.1720,""
"GSWS02_116",2015-07-28 19:13:30,64,102.00,"",116,48168.0,1,"",25,"",0.1700,""
"GSWS02_116",2015-07-29 08:31:30,65,102.00,"",116,48168.0,1,"",26,"",0.1720,""
"GSWS02_116",2015-07-29 21:49:30,66,102.00,"",116,48168.0,1,"",27,"",0.1660,""
"GSWS02_116",2015-07-30 11:07:30,67,102.00,"",116,48168.0,1,"",28,"",0.1680,""
"GSWS02_116",2015-07-30 11:34:30,68,102.00,"",116,48168.0,1,"",29,"",0.1680,""
"GSWS02_116",2015-08-06 11:39:00,69,102.00,"",116,48168.0,1,"",30,"",0.1700,""
"GSWS02_116",2015-08-06 14:41:30,70,102.00,"",116,48168.0,1,"",31,"",0.1600,""
"GSWS02_116",2015-08-06 16:01:30,71,102.00,"",116,48168.0,1,"",32,"",0.1600,""
"GSWS02_116",2015-08-07 05:19:30,72,102.00,"",116,48168.0,1,"",33,"",0.1580,""
"GSWS02_116",2015-08-07 18:37:30,73,102.00,"",116,48168.0,1,"",34,"",0.1570,""
"GSWS02_116",2015-08-08 07:55:30,74,102.00,"",116,48168.0,1,"",35,"",0.1600,""
"GSWS02_116",2015-08-08 21:13:30,75,102.00,"",116,48168.0,1,"",36,"",0.1550,""
"GSWS02_116",2015-08-09 10:31:30,76,102.00,"",116,48168.0,1,"",37,"",0.1600,""
"GSWS02_116",2015-08-09 23:49:30,77,102.00,"",116,48168.0,1,"",38,"",0.1550,""
"GSWS02_116",2015-08-10 13:07:30,78,102.00,"",116,48168.0,1,"",39,"",0.1590,""
"GSWS02_116",2015-08-11 02:25:30,79,102.00,"",116,48168.0,1,"",40,"",0.1540,""
"GSWS02_116",2015-08-11 15:43:30,80,102.00,"",116,48168.0,1,"",10,"",0.1570,""
"GSWS02_116",2015-08-12 05:01:30,81,102.00,"",116,48168.0,1,"",11,"",0.1540,""
"GSWS02_116",2015-08-12 18:19:30,82,102.00,"",116,48168.0,1,"",12,"",0.1560,""
"GSWS02_116",2015-08-13 07:37:30,83,102.00,"",116,48168.0,1,"",13,"",0.1580,""
"GSWS02_116",2015-08-13 20:55:30,84,102.00,"",116,48168.0,1,"",14,"",0.1550,""
"GSWS02_116",2015-08-14 10:13:30,85,102.00,"",116,48168.0,1,"",15,"",0.1590,""
"GSWS02_116",2015-08-14 23:31:30,86,102.00,"",116,48168.0,1,"",16,"",0.1570,""
"GSWS02_116",2015-08-15 12:49:30,87,102.00,"",116,48168.0,1,"",17,"",0.1610,""
"GSWS02_116",2015-08-16 02:07:30,88,102.00,"",116,48168.0,1,"",18,"",0.1550,""
"GSWS02_116",2015-08-16 15:25:30,89,102.00,"",116,48168.0,1,"",19,"",0.1580,""
"GSWS02_116",2015-08-17 04:43:30,90,102.00,"",116,48168.0,1,"",20,"",0.1550,""
"GSWS02_116",2015-08-17 18:01:30,91,102.00,"",116,48168.0,1,"",21,"",0.1530,""
"GSWS02_116",2015-08-18 07:19:30,92,102.00,"",116,48168.0,1,"",22,"",0.1550,""
"GSWS02_116",2015-08-18 12:58:15,93,102.00,"",116,48168.0,1,"",23,"",0.1550,""
"GSWS02_116",2015-08-18 20:37:30,94,102.00,"",116,48168.0,1,"",23,"",0.1440,""
"GSWS02_116",2015-08-19 09:55:30,95,102.00,"",116,48168.0,1,"",24,"",0.1480,""
"GSWS02_116",2015-08-19 23:13:30,96,102.00,"",116,48168.0,1,"",25,"",0.1420,""
"GSWS02_116",2015-08-20 12:31:30,97,102.00,"",116,48168.0,1,"",26,"",0.1490,""
"GSWS02_116",2015-08-21 01:49:30,98,102.00,"",116,48168.0,1,"",27,"",0.1440,""
"GSWS02_116",2015-08-21 15:07:30,99,102.00,"",116,48168.0,1,"",28,"",0.1480,""
"GSWS02_116",2015-08-22 04:25:30,100,102.00,"",116,48168.0,1,"",29,"",0.1440,""
"GSWS02_116",2015-08-22 17:43:30,101,102.00,"",116,48168.0,1,"",30,"",0.1410,""
"GSWS02_116",2015-08-23 07:01:30,102,102.00,"",116,48168.0,1,"",31,"",0.1440,""
"GSWS02_116",2015-08-23 20:19:30,103,102.00,"",116,48168.0,1,"",32,"",0.1390,""
"GSWS02_116",2015-08-24 09:37:30,104,102.00,"",116,48168.0,1,"",33,"",0.1480,""
"GSWS02_116",2015-08-24 22:55:30,105,102.00,"",116,48168.0,1,"",34,"",0.1450,""
"GSWS02_116",2015-08-25 10:43:45,106,102.00,"",116,48168.0,1,"",35,"",0.1490,""
"GSWS02_116",2015-08-25 12:13:30,107,102.00,"",116,48168.0,1,"",1,"",0.1510,""
"GSWS02_116",2015-08-26 01:31:30,108,102.00,"",116,48168.0,1,"",2,"",0.1450,""
"GSWS02_116",2015-08-26 14:49:30,109,102.00,"",116,48168.0,1,"",3,"",0.1480,""
"GSWS02_116",2015-08-27 04:07:30,110,102.00,"",116,48168.0,1,"",4,"",0.1440,""
"GSWS02_116",2015-08-27 17:25:30,111,102.00,"",116,48168.0,1,"",5,"",0.1440,""
"GSWS02_116",2015-08-28 06:43:30,112,102.00,"",116,48168.0,1,"",6,"",0.1450,""
"GSWS02_116",2015-08-28 20:01:30,113,102.00,"",116,48168.0,1,"",7,"",0.1430,""
"GSWS02_116",2015-08-29 09:19:30,114,102.00,"",116,48168.0,1,"",8,"",0.1790,""
"GSWS02_116",2015-08-29 22:37:30,115,102.00,"",116,48168.0,1,"",9,"",0.1550,""
"GSWS02_116",2015-08-30 11:55:30,116,102.00,"",116,48168.0,1,"",10,"",0.1680,""
"GSWS02_116",2015-08-31 01:13:30,117,102.00,"",116,48168.0,1,"",11,"",0.1800,""
"GSWS02_116",2015-08-31 14:31:30,118,102.00,"",116,48168.0,1,"",12,"",0.1660,""
"GSWS02_116",2015-09-01 03:49:30,119,102.00,"",116,48168.0,1,"",13,"",0.1600,""
"GSWS02_116",2015-09-01 17:07:30,120,102.00,"",116,48168.0,1,"",14,"",0.1570,""
"GSWS02_116",2015-09-02 06:25:30,121,102.00,"",116,48168.0,1,"",15,"",0.1590,""
"GSWS02_116",2015-09-02 19:43:30,122,102.00,"",116,48168.0,1,"",16,"",0.2440,""
"GSWS02_116",2015-09-03 09:01:30,123,102.00,"",116,48168.0,1,"",17,"",0.1770,""
"GSWS02_116",2015-09-03 22:19:30,124,102.00,"",116,48168.0,1,"",18,"",0.1630,""
"GSWS02_116",2015-09-04 11:37:30,125,102.00,"",116,48168.0,1,"",19,"",0.1610,""
"GSWS02_116",2015-09-05 00:55:30,126,102.00,"",116,48168.0,1,"",20,"",0.1930,""
"GSWS02_116",2015-09-05 14:13:30,127,102.00,"",116,48168.0,1,"",21,"",0.1790,""
"GSWS02_116",2015-09-06 03:31:30,128,102.00,"",116,48168.0,1,"",22,"",0.1660,""
"GSWS02_116",2015-09-06 16:49:30,129,102.00,"",116,48168.0,1,"",23,"",0.1630,""
"GSWS02_116",2015-09-07 06:07:30,130,102.00,"",116,48168.0,1,"",24,"",0.1600,""
"GSWS02_116",2015-09-07 19:25:30,131,102.00,"",116,48168.0,1,"",25,"",0.1570,""
"GSWS02_116",2015-09-08 08:43:30,132,102.00,"",116,48168.0,1,"",26,"",0.1560,""
"GSWS02_116",2015-09-08 22:01:30,133,102.00,"",116,48168.0,1,"",27,"",0.1530,""
"GSWS02_116",2015-09-09 11:19:30,134,102.00,"",116,48168.0,1,"",28,"",0.1540,""
"GSWS02_116",2015-09-10 00:37:30,135,102.00,"",116,48168.0,1,"",29,"",0.1510,""
"GSWS02_116",2015-09-10 13:55:30,136,102.00,"",116,48168.0,1,"",30,"",0.1520,""
"GSWS02_116",2015-09-11 03:13:30,137,102.00,"",116,48168.0,1,"",31,"",0.1490,""
"GSWS02_116",2015-09-11 16:31:30,138,102.00,"",116,48168.0,1,"",32,"",0.1470,""
"GSWS02_116",2015-09-12 05:49:30,139,102.00,"",116,48168.0,1,"",33,"",0.1460,""
"GSWS02_116",2015-09-12 19:07:30,140,102.00,"",116,48168.0,1,"",34,"",0.1450,""
"GSWS02_116",2015-09-13 08:25:30,141,102.00,"",116,48168.0,1,"",35,"",0.1450,""
"GSWS02_116",2015-09-13 21:43:30,142,102.00,"",116,48168.0,1,"",36,"",0.1430,""
"GSWS02_116",2015-09-14 11:01:30,143,102.00,"",116,48168.0,1,"",37,"",0.1450,""
"GSWS02_116",2015-09-15 00:19:30,144,102.00,"",116,48168.0,1,"",38,"",0.1420,""
"GSWS02_116",2015-09-15 11:06:30,145,102.00,"",116,48168.0,1,"",39,"",0.1430,""
"GSWS02_116",2015-09-15 13:37:30,146,102.00,"",116,48168.0,1,"",1,"",0.1450,""
"GSWS02_116",2015-09-16 02:55:30,147,102.00,"",116,48168.0,1,"",2,"",0.1430,""
"GSWS02_116",2015-09-16 16:13:30,148,102.00,"",116,48168.0,1,"",3,"",0.1450,""
"GSWS02_116",2015-09-17 03:37:15,149,102.00,"",116,48168.0,1,"",4,"",0.2980,""
"GSWS02_116",2015-09-17 08:03:15,150,102.00,"",116,48168.0,1,"",5,"",0.5110,""
"GSWS02_116",2015-09-17 14:41:15,151,102.00,"",116,48168.0,1,"",6,"",0.3840,""
"GSWS02_116",2015-09-17 18:03:15,152,102.00,"",116,48168.0,1,"",7,"",0.5770,""
"GSWS02_116",2015-09-18 07:21:15,153,102.00,"",116,48168.0,1,"",8,"",0.2320,""
"GSWS02_116",2015-09-18 20:39:15,154,102.00,"",116,48168.0,1,"",9,"",0.1950,""
"GSWS02_116",2015-09-19 09:57:15,155,102.00,"",116,48168.0,1,"",10,"",0.1810,""
"GSWS02_116",2015-09-19 23:15:15,156,102.00,"",116,48168.0,1,"",11,"",0.1740,""
"GSWS02_116",2015-09-20 12:33:15,157,102.00,"",116,48168.0,1,"",12,"",0.1700,""
"GSWS02_116",2015-09-21 01:51:15,158,102.00,"",116,48168.0,1,"",13,"",0.1660,""
"GSWS02_116",2015-09-21 15:09:15,159,102.00,"",116,48168.0,1,"",14,"",0.1640,""
"GSWS02_116",2015-09-22 04:27:15,160,102.00,"",116,48168.0,1,"",15,"",0.1580,""
"GSWS02_116",2015-09-22 17:45:15,161,102.00,"",116,48168.0,1,"",16,"",0.1550,""
"GSWS02_116",2015-09-23 07:03:15,162,102.00,"",116,48168.0,1,"",17,"",0.1530,""
"GSWS02_116",2015-09-23 20:21:15,163,102.00,"",116,48168.0,1,"",18,"",0.1510,""
"GSWS02_116",2015-09-24 09:39:15,164,102.00,"",116,48168.0,1,"",19,"",0.1520,""
"GSWS02_116",2015-09-24 22:57:15,165,102.00,"",116,48168.0,1,"",20,"",0.1490,""
"GSWS02_116",2015-09-25 12:15:15,166,102.00,"",116,48168.0,1,"",21,"",0.1490,""
"GSWS02_116",2015-09-26 01:33:15,167,102.00,"",116,48168.0,1,"",22,"",0.1480,""
"GSWS02_116",2015-09-26 14:51:15,168,102.00,"",116,48168.0,1,"",23,"",0.1500,""
"GSWS02_116",2015-09-27 04:09:15,169,102.00,"",116,48168.0,1,"",24,"",0.1480,""
"GSWS02_116",2015-09-27 17:27:15,170,102.00,"",116,48168.0,1,"",25,"",0.1480,""
"GSWS02_116",2015-09-28 06:45:15,171,102.00,"",116,48168.0,1,"",26,"",0.1470,""
"GSWS02_116",2015-09-28 10:12:45,172,102.00,"",116,48168.0,1,"",27,"",0.1470,""
"GSWS02_116",2015-09-29 00:52:30,173,102.00,"",116,48168.0,0,"",27,"",0.0150,""
"GSWS02_116",2015-09-29 14:10:30,174,102.00,"",116,48168.0,0,"",28,"",0.0140,""
"GSWS02_116",2015-09-30 03:28:30,175,102.00,"",116,48168.0,0,"",29,"",0.0140,""
"GSWS02_116",2015-09-30 16:46:30,176,102.00,"",116,48168.0,0,"",30,"",0.0150,""
